TimeCDT,TemperatureF,Dew PointF,Humidity,Sea Level PressureIn,VisibilityMPH,Wind Direction,Wind SpeedMPH,Gust SpeedMPH,PrecipitationIn,Events,Conditions,WindDirDegrees,DateUTC
12:53 AM,71.1,62.1,73,29.98,10.0,ESE,5.8,-,N/A,,Clear,110,2012-10-03 05:53:00
1:53 AM,69.1,62.1,78,29.98,10.0,SSE,4.6,-,N/A,,Clear,150,2012-10-03 06:53:00
2:53 AM,69.1,62.1,78,29.97,10.0,ESE,5.8,-,N/A,,Clear,120,2012-10-03 07:53:00
3:53 AM,68.0,62.1,81,29.96,10.0,SE,5.8,-,N/A,,Clear,140,2012-10-03 08:53:00
4:53 AM,66.9,61.0,81,29.96,10.0,SE,4.6,-,N/A,,Clear,130,2012-10-03 09:53:00
5:53 AM,66.0,60.1,81,29.96,10.0,SE,3.5,-,N/A,,Clear,130,2012-10-03 10:53:00
6:53 AM,68.0,61.0,78,29.96,10.0,SE,5.8,-,N/A,,Clear,130,2012-10-03 11:53:00
7:53 AM,69.1,62.1,78,29.96,9.0,SE,6.9,-,N/A,,Clear,130,2012-10-03 12:53:00
8:53 AM,72.0,62.1,71,29.97,8.0,SE,5.8,-,N/A,,Clear,140,2012-10-03 13:53:00
9:53 AM,80.1,63.0,56,29.98,10.0,SE,12.7,-,N/A,,Clear,140,2012-10-03 14:53:00
10:53 AM,84.9,64.9,51,29.99,10.0,SSE,17.3,25.3,N/A,,Clear,160,2012-10-03 15:53:00
11:53 AM,88.0,64.0,45,29.98,10.0,SSE,19.6,24.2,N/A,,Clear,160,2012-10-03 16:53:00
12:53 PM,91.9,63.0,38,29.95,10.0,SSE,20.7,27.6,N/A,,Clear,150,2012-10-03 17:53:00
1:53 PM,95.0,61.0,32,29.92,10.0,SE,16.1,24.2,N/A,,Clear,140,2012-10-03 18:53:00
2:53 PM,95.0,57.9,29,29.89,10.0,SSE,17.3,24.2,N/A,,Clear,160,2012-10-03 19:53:00
3:53 PM,96.1,59.0,29,29.88,10.0,South,13.8,21.9,N/A,,Clear,170,2012-10-03 20:53:00
4:53 PM,95.0,63.0,34,29.88,10.0,SE,15.0,25.3,N/A,,Clear,130,2012-10-03 21:53:00
5:53 PM,91.9,64.9,41,29.88,10.0,SE,19.6,-,N/A,,Clear,140,2012-10-03 22:53:00
6:53 PM,89.1,64.9,45,29.90,10.0,SE,17.3,-,N/A,,Clear,140,2012-10-03 23:53:00
7:53 PM,84.9,66.0,53,29.92,10.0,SE,17.3,25.3,N/A,,Clear,140,2012-10-04 00:53:00
8:53 PM,82.9,66.9,58,29.94,10.0,SE,13.8,-,N/A,,Clear,140,2012-10-04 01:53:00
9:53 PM,81.0,68.0,65,29.96,10.0,SE,12.7,-,N/A,,Clear,140,2012-10-04 02:53:00
10:53 PM,81.0,69.1,67,29.97,10.0,SE,13.8,20.7,N/A,,Clear,140,2012-10-04 03:53:00